Station PCOC1 - 9415144 - Port Chicago, CA Image indicating link to RSS feed of recent meteorological observations for station PCOC1


Conditions at PCOC1 as of
(3:30 am PDT)
1030 GMT on 04/14/2024:
     

Click on the graph icon in the table below to see a time series plot of the last five days of that observation.

5-day plot - Wind Direction Wind Direction (WDIR):ENE ( 60 deg true )
5-day plot - Wind Speed Wind Speed (WSPD): 15.0 kts
5-day plot - Wind Gust Wind Gust (GST): 20.0 kts
5-day plot - Atmospheric Pressure Atmospheric Pressure (PRES):30.00 in
5-day plot - Air Temperature Air Temperature (ATMP): 47.5 °F
5-day plot - Wind Chill Wind Chill (CHILL): 40.8 °F
5-day plot - Wind Speed at 10 Meters Wind Speed at 10 meters (WSPD10M): 15.5 kts
5-day plot - Wind Speed at 20 Meters Wind Speed at 20 meters (WSPD20M): 15.5 kts
5-day plot -  Wind Speed, Wind Gust and Atmospheric Pressure Combined plot of Wind Speed, Gust, and Air Pressure
NOS Water Level Observation Network Water Level
Previous observations
TIME
(PDT)
5-day plot - Wind Direction
WDIR
 
5-day plot - Wind Speed
WSPD
kts
5-day plot - Wind Gust
GST
kts
5-day plot - Wave Height
WVHT
ft
5-day plot - Dominant Wave Period
DPD
sec
5-day plot - Average Wave Period
APD
sec
5-day plot - Mean Wave Direction
MWD
 
5-day plot - Atmospheric Pressure
PRES
in
5-day plot - Pressure Tendency
PTDY
in
5-day plot - Air Temperature
ATMP
°F
5-day plot - Water Temperature
WTMP
°F
5-day plot - Dew Point
DEWP
°F
5-day plot - Salinity
SAL
psu
5-day plot - Visibility
VIS
nmi
5-day plot - Tide (above MLLW)
TIDE
ft
2024-04-14 03:24 amENE 15.9 20.0----30.00- 46.8-----
2024-04-14 03:18 amENE 15.0 18.1----29.99- 47.3-----
2024-04-14 03:12 amENE 14.0 19.0----29.99- 47.3-----
2024-04-14 03:06 amENE 15.9 20.0----29.99- 46.8-----
2024-04-14 03:00 am NE 15.0 19.0------ 47.3-----
2024-04-14 02:54 amENE 15.9 20.0------ 46.8-----
2024-04-14 02:48 amENE 15.9 19.0------ 46.4-----
2024-04-14 02:42 amENE 15.0 20.0------ 46.4-----
2024-04-14 02:36 amENE 14.0 19.0------ 46.8-----
2024-04-14 02:30 amENE 14.0 19.0----29.98-------
2024-04-14 02:24 amENE 15.0 18.1----29.99-------
2024-04-14 02:18 am NE 15.0 20.0----29.99- 45.9-----
2024-04-14 02:12 am NE 15.9 18.1----29.99- 45.7-----
2024-04-14 02:06 am NE 15.0 19.0----29.99- 46.2-----
2024-04-14 02:00 am NE 13.0 17.1----29.99+0.05 45.3-----
2024-04-14 01:54 am NE 15.0 18.1----30.00- 45.0-----
2024-04-14 01:48 amNNE 15.9 19.0----29.99- 45.1-----
2024-04-14 01:42 amNNE 17.1 20.0----29.99- 45.0-----
2024-04-14 01:36 amNNE 17.1 20.0----29.99- 45.1-----
2024-04-14 01:30 amNNE 15.9 18.1----29.99- 45.0-----
2024-04-14 01:24 amNNE 18.1 20.0----29.99- 45.0-----
2024-04-14 01:18 amNNE 15.0 19.0----29.99- 45.1-----
2024-04-14 01:12 amNNE 14.0 15.9----29.99- 45.1-----
2024-04-14 01:06 am NE 13.0 17.1----29.99- 45.9-----
2024-04-14 01:00 amNNE 14.0 15.9----29.99+0.04 45.5-----
2024-04-14 12:54 amENE 15.0 17.1----29.99- 47.1-----
2024-04-14 12:48 amENE 13.0 15.9----29.98- 47.7-----
2024-04-14 12:42 am E 13.0 17.1----29.98- 46.4-----
2024-04-14 12:36 am E 15.0 18.1----29.98- 46.6-----
2024-04-14 12:30 am E 14.0 19.0----29.97- 46.4-----
2024-04-14 12:24 am E 13.0 19.0----29.97- 46.2-----
2024-04-14 12:18 am E 17.1 22.0----29.97- 47.1-----
2024-04-14 12:12 am E 18.1 21.0----29.96- 47.1-----
2024-04-14 12:06 amENE 15.0 19.0----29.96- 47.5-----
2024-04-14 12:00 am E 17.1 21.0----29.96+0.00 47.1-----
2024-04-13 11:54 pm E 14.0 17.1----29.96- 47.1-----
2024-04-13 11:48 pm E 13.0 18.1----29.96- 46.2-----
2024-04-13 11:42 pm E 12.0 18.1----29.96- 46.0-----
2024-04-13 11:36 pm E 14.0 18.1----29.95- 45.9-----
2024-04-13 11:30 pm E 14.0 18.1----29.95- 45.9-----
2024-04-13 11:24 pm E 12.0 15.0----29.95- 45.7-----
2024-04-13 11:18 pm E 13.0 17.1----29.95- 45.9-----
2024-04-13 11:12 pm E 12.0 15.0----29.95- 45.9-----
2024-04-13 11:06 pm E 12.0 15.0----29.94- 45.7-----
2024-04-13 11:00 pm E 12.0 14.0----29.94-0.01 45.9-----
2024-04-13 10:54 pm E 9.9 13.0----29.95- 45.1-----
2024-04-13 10:48 pm E 8.9 12.0----29.95- 45.0-----
2024-04-13 10:42 pm E 12.0 15.0----29.95- 45.3-----
2024-04-13 10:36 pm E 12.0 15.9----29.95- 45.1-----
2024-04-13 10:30 pm E 12.0 15.9----29.94- 45.1-----
2024-04-13 10:24 pm E 15.0 24.1----29.94- 45.3-----
2024-04-13 10:18 pm E 19.0 24.1----29.93- 45.7-----
2024-04-13 10:12 pm E 17.1 20.0----29.94- 45.3-----
2024-04-13 10:06 pm E 12.0 15.9----29.95- 45.1-----
2024-04-13 10:00 pm E 8.0 9.9----29.95+0.00 44.8-----
2024-04-13 09:54 pmESE 6.0 9.9----29.96- 45.0-----
2024-04-13 09:48 pmESE 7.0 12.0----29.96- 45.1-----
2024-04-13 09:42 pm E 7.0 13.0----29.96- 45.1-----
2024-04-13 09:36 pmESE 8.9 15.0----29.96- 45.1-----
2024-04-13 09:30 pm E 13.0 20.0----29.95- 45.3-----
2024-04-13 09:24 pm E 17.1 21.0----29.95- 45.5-----
2024-04-13 09:18 pm E 17.1 21.0----29.95- 45.9-----
2024-04-13 09:12 pm E 15.9 20.0----29.95- 45.9-----
2024-04-13 09:06 pm E 15.9 19.0----29.96- 45.9-----
2024-04-13 09:00 pm E 15.0 19.0----29.96+0.00 45.9-----
2024-04-13 08:54 pm E 13.0 18.1----29.96- 46.0-----
2024-04-13 08:48 pm E 12.0 18.1----29.96- 46.4-----
2024-04-13 08:42 pm E 12.0 18.1----29.96- 46.2-----
2024-04-13 08:36 pm E 12.0 18.1----29.96- 46.0-----
2024-04-13 08:30 pm E 12.0 18.1----29.96- 46.0-----
2024-04-13 08:24 pm E 12.0 15.9----29.96- 45.9-----
2024-04-13 08:18 pm E 12.0 15.9----29.96- 45.9-----
2024-04-13 08:12 pm E 13.0 17.1----29.96- 45.9-----
2024-04-13 08:06 pm E 14.0 18.1----29.96- 46.0-----
2024-04-13 08:00 pm E 14.0 19.0----29.96+0.02 45.9-----
2024-04-13 07:54 pm E 15.0 20.0----29.96- 46.0-----
2024-04-13 07:48 pm E 14.0 19.0----29.96- 46.0-----
2024-04-13 07:42 pm E 14.0 22.0----29.96- 46.2-----
2024-04-13 07:36 pm E 14.0 20.0----29.96- 46.2-----
2024-04-13 07:30 pm E 17.1 22.9----29.96- 46.4-----
2024-04-13 07:24 pm E 17.1 22.9----29.96- 46.4-----
2024-04-13 07:18 pm E 14.0 19.0----29.95- 46.6-----
2024-04-13 07:12 pm E 15.9 24.1----29.96- 46.8-----
2024-04-13 07:06 pm E 19.0 22.9----29.95- 46.6-----
2024-04-13 07:00 pm E 14.0 19.0----29.95+0.02 46.8-----
2024-04-13 06:54 pm E 13.0 19.0----29.95- 46.9-----
2024-04-13 06:48 pm E 15.0 19.0----29.95- 46.9-----
2024-04-13 06:42 pm E 15.0 20.0----29.95- 46.9-----
2024-04-13 06:36 pm E 14.0 19.0----29.95- 46.9-----
2024-04-13 06:30 pm E 15.9 20.0----29.95- 46.9-----
2024-04-13 06:24 pm E 12.0 17.1----29.95- 47.1-----
2024-04-13 06:18 pm E 14.0 18.1----29.95- 47.1-----
2024-04-13 06:12 pm E 14.0 18.1----29.95- 47.1-----
2024-04-13 06:06 pm E 13.0 18.1----29.95- 46.9-----
2024-04-13 06:00 pm E 13.0 17.1----29.95+0.03 47.1-----
2024-04-13 05:54 pm E 14.0 18.1----29.95- 47.1-----
2024-04-13 05:48 pm E 14.0 17.1----29.95- 47.1-----
2024-04-13 05:42 pm E 15.0 19.0----29.95- 47.3-----
2024-04-13 05:36 pmENE 15.0 21.0----29.95- 47.5-----
2024-04-13 05:30 pmENE 15.9 20.0----29.95- 47.8-----
2024-04-13 05:24 pmENE 17.1 22.0----29.95- 47.3-----
2024-04-13 05:18 pm-------29.95- 47.3-----
2024-04-13 05:12 pm-------29.95- 47.5-----
2024-04-13 05:06 pm-------29.94- 47.7-----
2024-04-13 05:00 pm-------29.94+0.01 47.7-----
2024-04-13 04:54 pm-------29.93- 47.1-----
2024-04-13 04:24 pmENE 15.9 20.0----29.93- 47.5-----
2024-04-13 04:18 pmENE 18.1 21.0----29.93- 47.1-----
2024-04-13 04:12 pmENE 17.1 21.0----29.93- 46.9-----
2024-04-13 04:06 pmENE 18.1 22.9----29.93- 47.1-----
2024-04-13 04:00 pmENE 17.1 22.0----29.93+0.00 47.1-----
2024-04-13 03:54 pmENE 18.1 22.9----29.93- 47.3-----
2024-04-13 03:48 pmENE 15.0 20.0----29.93- 47.5-----
2024-04-13 03:42 pmENE 15.9 20.0----29.92- 48.0-----
2024-04-13 03:36 pm E 13.0 17.1----29.92- 47.8-----
2024-04-13 03:30 pm E 13.0 17.1----29.93- 47.7-----
2024-04-13 03:24 pm E 13.0 17.1----29.93- 47.7-----
2024-04-13 03:18 pm E 13.0 19.0----29.93- 47.8-----
2024-04-13 03:12 pm E 15.0 20.0----29.93- 47.8-----
2024-04-13 03:06 pm E 15.0 20.0----29.93- 47.8-----
2024-04-13 03:00 pm E 14.0 18.1----29.92+0.01 48.0-----
2024-04-13 02:54 pm E 15.0 18.1----29.92- 48.0-----
2024-04-13 02:48 pm E 14.0 20.0----29.93- 48.4-----
2024-04-13 02:42 pm E 15.0 18.1----29.92- 48.4-----
2024-04-13 02:36 pm E 13.0 17.1----29.92- 48.7-----
2024-04-13 02:30 pm E 15.0 18.1----29.93- 48.6-----
2024-04-13 02:24 pm E 13.0 17.1----29.93- 48.6-----
2024-04-13 02:18 pm E 13.0 17.1----29.93- 48.4-----
2024-04-13 02:12 pm E 14.0 18.1----29.93- 48.4-----
2024-04-13 02:06 pm E 15.0 17.1----29.93- 48.6-----
2024-04-13 02:00 pm E 12.0 14.0----29.93+0.03 48.6-----
2024-04-13 01:54 pm E 11.1 17.1----29.93- 48.7-----
2024-04-13 01:48 pm--------- 48.7-----
2024-04-13 01:42 pm--------- 48.9-----
2024-04-13 01:36 pm--------- 48.9-----
2024-04-13 01:30 pm E 11.1 14.0----29.92-------
2024-04-13 01:24 pm E 11.1 14.0----29.92-------
2024-04-13 01:18 pm E 9.9 14.0----29.93- 49.5-----
2024-04-13 01:12 pm E 13.0 17.1----29.92- 49.3-----
2024-04-13 01:06 pmENE 11.1 13.0----29.92- 49.8-----
2024-04-13 01:00 pm E 9.9 14.0----29.92+0.04 49.8-----
2024-04-13 12:54 pm E 11.1 15.0----29.92- 50.0-----
2024-04-13 12:48 pm E 9.9 13.0----29.91- 50.0-----
2024-04-13 12:42 pm E 8.0 9.9----29.91- 50.0-----
2024-04-13 12:36 pm E 8.9 13.0----29.92- 50.2-----
2024-04-13 12:30 pmENE 12.0 13.0----29.91- 50.0-----
2024-04-13 12:24 pmENE 11.1 15.0----29.92- 50.0-----
2024-04-13 12:18 pmENE 13.0 15.0----29.92- 49.8-----
2024-04-13 12:12 pmENE 13.0 17.1----29.92- 49.6-----
2024-04-13 12:06 pmENE 14.0 15.9----29.91- 49.3-----
2024-04-13 12:00 pm E 11.1 15.9----29.91+0.03 49.5-----
2024-04-13 11:54 am E 12.0 17.1----29.91- 49.5-----
2024-04-13 11:48 am E 9.9 12.0----29.91-------
2024-04-13 11:42 amENE 9.9 12.0----29.91-------
2024-04-13 11:36 amENE 8.9 14.0----29.91-------
2024-04-13 11:30 am NE 14.0 15.0----29.90- 49.3-----
2024-04-13 11:24 am NE 8.9 11.1----29.91- 49.5-----
2024-04-13 11:18 am-------29.90-------
2024-04-13 11:12 am-------29.90-------
2024-04-13 11:06 am-------29.90-------
2024-04-13 11:00 am E 1.9 5.1----29.90+0.02 49.5-----
2024-04-13 10:54 am E 5.1 8.0----29.90- 50.0-----
2024-04-13 10:48 amESE 6.0 8.9----29.90-------
2024-04-13 10:42 am S 2.9 6.0----29.91-------
2024-04-13 10:36 am S 5.1 8.0----29.91-------
2024-04-13 10:30 amSSE 6.0 8.0----29.90- 48.9-----
2024-04-13 10:24 amSSE 8.0 13.0----29.89- 48.9-----
2024-04-13 10:18 amSSE 8.9 13.0----29.89- 48.7-----
2024-04-13 10:12 amSSE 9.9 13.0----29.88- 48.6-----
2024-04-13 10:06 amSSE 8.0 12.0----29.88- 48.6-----
2024-04-13 10:00 amSSE 8.9 15.0----29.88+0.01 48.6-----
2024-04-13 09:54 amSSE 8.0 9.9----29.89- 48.4-----
2024-04-13 09:48 amSSE 8.0 9.9----29.89- 48.4-----
2024-04-13 09:42 amSSE 7.0 9.9----29.88- 48.2-----
2024-04-13 09:36 am S 6.0 8.0----29.89- 48.0-----
2024-04-13 09:30 am S 6.0 9.9----29.89-------
2024-04-13 09:24 am S 6.0 13.0----29.89-------
2024-04-13 09:18 am S 8.0 13.0----29.89-------
2024-04-13 09:12 am S 5.1 8.9----29.89-------
2024-04-13 09:06 am S 5.1 8.0----29.88-------
2024-04-13 09:00 am S 4.1 9.9----29.88+0.04 47.1-----
2024-04-13 08:54 am S 4.1 7.0----29.88- 47.1-----
2024-04-13 08:48 am-------29.89-------
2024-04-13 08:42 am-------29.89-------
2024-04-13 08:36 am-------29.89-------
2024-04-13 08:30 am S 4.1 7.0----29.88- 46.9-----
2024-04-13 08:24 am S 5.1 8.9----29.88- 46.6-----
2024-04-13 08:18 am S 2.9 8.0----29.88- 46.6-----
2024-04-13 08:12 am S 5.1 6.0----29.88- 46.6-----
2024-04-13 08:06 am S 2.9 4.1----29.88- 46.6-----
2024-04-13 08:00 amSSW 1.0 5.1----29.88- 46.6-----
2024-04-13 07:54 amSSW 5.1 8.0----29.87- 46.6-----
2024-04-13 07:48 am SW 6.0 8.9----29.87- 46.6-----
2024-04-13 07:42 am SW 7.0 8.9----29.87- 46.4-----
2024-04-13 07:36 am SW 7.0 8.9----29.87- 46.2-----
2024-04-13 07:30 am SW 6.0 9.9----29.88- 45.9-----
2024-04-13 07:24 am SW 8.9 13.0----29.87- 46.0-----
2024-04-13 07:18 am SW 13.0 17.1----29.87- 46.2-----
2024-04-13 07:12 am SW 14.0 20.0----29.87- 46.2-----
2024-04-13 07:06 am SW 13.0 19.0----29.87- 46.4-----
2024-04-13 07:00 amWSW 14.0 18.1----29.87+0.09 47.1-----
2024-04-13 06:54 amWSW 15.9 22.0----29.87- 47.5-----
2024-04-13 06:48 amWSW 17.1 22.9----29.86- 48.0-----
2024-04-13 06:42 amWSW 17.1 21.0----29.86- 48.2-----
2024-04-13 06:36 amWSW 15.0 20.0----29.86- 48.9-----
2024-04-13 06:30 amWSW 15.9 22.0----29.85- 48.7-----
2024-04-13 06:18 amWSW 12.0 19.0----29.85- 48.9-----
2024-04-13 06:12 amWSW 15.0 19.0----29.85- 48.7-----
2024-04-13 06:06 amWSW 15.0 18.1----29.84- 48.7-----
2024-04-13 06:00 amWSW 15.9 20.0----29.84+0.05------
2024-04-13 05:54 amWSW 15.9 20.0----29.83-------
2024-04-13 05:48 amWSW 14.0 21.0----29.83- 49.5-----
2024-04-13 05:42 amWSW 17.1 21.0----29.83- 49.3-----
2024-04-13 05:36 amWSW 15.0 21.0----29.82- 49.6-----
2024-04-13 05:30 amWSW 17.1 21.0----29.82- 49.3-----
2024-04-13 05:24 amWSW 19.0 22.0----29.83- 49.5-----
2024-04-13 05:18 amWSW 15.0 20.0----29.83- 49.8-----
2024-04-13 05:12 amWSW 15.0 19.0----29.82- 50.0-----
2024-04-13 05:06 amWSW 14.0 19.0----29.82- 50.7-----
2024-04-13 05:00 amWSW 12.0 15.0------------
2024-04-13 04:54 amWSW 11.1 14.0------------
2024-04-13 04:48 amWSW 12.0 14.0----29.82-------
2024-04-13 04:42 amWSW 9.9 15.0----29.81-------
2024-04-13 04:36 amWSW 12.0 15.9----29.81-------
2024-04-13 04:30 amWSW 13.0 17.1----29.80-------
2024-04-13 04:24 amWSW 14.0 22.9----29.80-------
2024-04-13 04:18 am-------29.80- 55.8-----
2024-04-13 04:12 am-------29.78- 55.6-----
2024-04-13 04:06 am-------29.78- 55.6-----
2024-04-13 04:00 am E 4.1 7.0----29.78-0.02 55.6-----
2024-04-13 03:54 amESE 7.0 8.9----29.78- 55.8-----